Location: Unspecified
(42.2730°N, 83.7130°W)
Time: 18:20:21
(UTC+00:00)

Daily predictions for brighter satellites

Satellite Brightness Start Highest point End
(mag) Time Altitude Azimuth Time Altitude Azimuth Time Altitude Azimuth
Cosmos 2322 Rocket 3.6 12:03:52 12° WNW 12:07:18 19° W 12:11:10 10° SW
Cosmos 1174 4.3 12:01:51 10° NNW 12:07:19 89° WSW 12:11:39 10° SSE
Helios 1A Rocket 4.0 12:05:08 10° SW 12:07:23 17° W 12:09:23 11° NW
Cosmos 2208 Rocket 4.0 12:02:11 10° SSW 12:07:25 85° WNW 12:12:38 10° NNE
Cosmos 1484 Rocket 3.4 12:04:54 10° NNW 12:07:45 26° WNW 12:10:36 10° SW
USA 290 2.5 12:05:04 10° SSW 12:08:14 72° ESE 12:11:28 10° NNE
USA 81 4.3 12:08:06 10° S 12:13:20 77° E 12:18:37 10° N
Cosmos 2298 Rocket 4.5 12:09:51 10° NNW 12:15:08 65° ENE 12:20:22 10° SSE
Meteor 1-5 Rocket 4.4 12:09:48 10° S 12:15:10 76° E 12:20:28 10° NNE
Cosmos 1812 Rocket 4.4 12:16:16 10° NNW 12:20:03 30° W 12:23:52 10° SSW
BREEZE M DEB (TANK) 2.9 12:19:46 10° WNW 12:22:13 36° N 12:27:14 10° ENE
Cosmos 2221 3.5 12:19:21 10° NNW 12:22:48 26° W 12:26:13 10° SW
BREEZE-M DEB (TANK) 4.4 12:21:06 10° WNW 12:24:06 37° NNE 12:32:12 10° E
Cosmos 2322 3.8 12:18:53 10° NNW 12:24:31 69° WSW 12:30:08 10° SSE
Meteor 1-25 Rocket 4.4 12:19:20 10° SSW 12:25:01 60° WNW 12:30:47 10° N
Cosmos 2227 Rocket 4.5 12:22:36 10° SSE 12:27:26 30° ESE 12:32:17 10° NE
CORIOLIS 4.4 22:22:41 10° SE 22:27:43 45° ENE 22:32:48 10° N
Cosmos 2266 Rocket 4.0 22:22:04 10° N 22:28:09 63° E 22:34:06 10° SSE
Cosmos 1933 3.3 22:25:48 10° S 22:29:32 55° E 22:33:17 10° NNE
Cosmos 1602 Rocket 3.5 22:25:39 10° N 22:30:02 84° E 22:34:21 10° S
Cosmos 1980 Rocket 2.6 22:26:58 10° S 22:32:17 44° ESE 22:37:35 10° NE
NOSS 3-2 (C) 4.0 22:29:16 10° WSW 22:34:04 44° NW 22:39:46 10° NNE
CBERS-1 4.0 22:30:18 10° SSE 22:35:24 82° ENE 22:40:32 10° NNW
Cosmos 2219 4.1 22:32:39 10° N 22:37:32 28° NE 22:42:24 10° ESE
Cosmos 1484 Rocket 2.8 22:36:41 10° S 22:40:09 73° WSW 22:43:39 10° NNW
Cosmos 2263 Rocket 2.6 22:36:36 10° NNW 22:41:59 42° ENE 22:47:21 10° SE
Okean 1-7 Rocket 3.5 22:39:17 10° N 22:43:40 80° E 22:48:01 10° S
SJ-12 4.4 22:41:23 10° SE 22:44:45 31° ENE 22:48:08 10° N
CZ-4C R/B 3.4 22:37:42 10° NW 22:45:02 78° WSW 22:53:55 10° SSE
COSMOS 2455 4.1 22:43:56 10° SSE 22:48:17 21° ESE 22:52:28 11° ENE
SMAP 3.0 22:45:31 10° SSE 22:50:07 65° ENE 22:54:45 10° N
MOS 1 Rocket 3.9 22:47:27 10° SE 22:52:06 41° ENE 22:56:59 10° N
Cosmos 1538 Rocket 4.3 22:47:17 10° N 22:52:22 45° ENE 22:57:29 10° SE
Cosmos 2369 4.4 22:47:41 10° S 22:52:49 36° ESE 22:58:00 10° NE
Meteor 1-5 Rocket 4.2 22:48:00 10° N 22:53:20 57° ENE 22:58:47 10° SSE
Landsat 7 3.8 22:49:19 10° SSE 22:53:50 55° ENE 22:58:24 10° N
COSMO-SKYMED 1 4.2 22:53:03 12° ENE 22:54:43 14° E 22:57:00 10° SE
Cosmos 1953 Rocket 3.9 22:51:02 10° N 22:55:18 44° ENE 22:59:33 10° SSE
Cosmos 1805 4.3 22:52:54 10° NNE 22:55:20 18° ENE 22:57:45 10° ESE
Cosmos 1825 Rocket 3.5 22:57:55 10° N 23:02:16 89° W 23:06:33 10° S
Cosmos 1076 Rocket 3.5 22:58:03 10° N 23:02:18 57° E 23:06:33 10° SSE
NOSS 2-3 (C) 3.7 23:01:03 10° SW 23:04:26 49° NW 23:07:57 10° NNE
Cosmos 2227 Rocket 2.4 22:58:49 10° NNW 23:04:29 77° WSW 23:10:06 10° SSE
Thor Agena Rocket 3.8 23:02:10 10° S 23:07:21 73° WSW 23:12:31 10° NNW
Hubble Space Telescope 3.5 23:07:15 10° S 23:07:36 10° S 23:07:56 10° S
NOSS 3 (A) 4.4 23:06:54 10° NNW 23:09:30 62° NE 23:12:53 10° SE
Cosmos 1697 Rocket 3.8 23:05:57 10° SW 23:11:13 42° WNW 23:16:33 10° NNE
Cosmos 372 Rocket 3.9 23:06:24 10° SSW 23:11:32 75° ESE 23:16:39 10° NNE
Cosmos 1898 Rocket 3.5 23:10:06 10° S 23:15:10 64° ESE 23:20:18 10° NNE
ERS-1 4.4 23:11:26 10° SSE 23:16:24 72° ENE 23:21:21 10° N
BREEZE-M DEB (TANK) 4.2 23:13:13 10° NW 23:16:43 47° NNE 23:25:46 13° E
IRS-P3 4.0 23:17:38 10° SSE 23:22:54 70° ENE 23:28:11 10° N
SL-16 R/B 3.9 23:17:40 10° N 23:23:14 36° WNW 23:28:47 10° SW
Cosmos 2333 Rocket 3.6 23:20:51 10° SE 23:24:37 18° E 23:24:53 18° E
Okean 1 3.1 23:23:18 10° S 23:26:49 54° E 23:29:14 19° NNE
Helios 1A Rocket 4.3 23:28:50 16° SE 23:28:50 16° SE 23:30:00 10° SE
Cosmos 1937 Rocket 3.5 23:23:34 10° S 23:28:39 62° ESE 23:32:50 15° NNE
Cosmos 2058 Rocket 3.0 23:25:44 10° S 23:30:12 82° E 23:34:42 10° N
Cosmos 2322 Rocket 3.9 23:28:32 10° SE 23:30:37 15° ESE 23:30:37 15° ESE
Cosmos 923 Rocket 4.2 23:28:41 10° N 23:33:39 44° ENE 23:38:35 10° SE
USA 238 DEB 4.0 23:29:28 10° SW 23:35:26 57° NW 23:41:16 13° NNE
USA 238 4.0 23:29:33 10° SW 23:35:32 58° NW 23:41:22 13° NNE
CZ-2D R/B 3.9 23:34:16 10° S 23:37:16 44° W 23:40:18 10° NNW
Cosmos-2242 2.9 23:33:29 10° S 23:37:43 89° WSW 23:42:00 10° N
Cosmos 967 Rocket 4.4 23:31:26 10° SSW 23:37:44 74° ESE 23:42:26 20° NE
GEOS 3 Rocket 4.3 23:37:59 14° NNE 23:42:32 53° NW 23:47:43 10° WSW
SL-24 R/B - RUBIN 2 3.9 23:41:25 10° SSW 23:46:55 77° ESE 23:49:23 31° NE
Cosmos 44 Rocket 4.4 23:43:09 10° NNW 23:47:12 27° NE 23:47:12 27° NE
Resurs 1-3 3.6 23:44:47 10° SSE 23:48:58 54° ENE 23:53:10 10° N
SWAS 4.2 23:48:08 10° SSW 23:52:08 66° ESE 23:52:55 52° ENE
Gbstr 26 Del rocket 4.3 23:49:20 10° WNW 23:52:27 22° N 23:53:00 21° N
Cosmos 2082 3.6 23:48:10 10° NNW 23:53:55 82° ENE 23:59:38 10° SSE
CZ-2D R/B 3.3 23:50:59 10° SSE 23:55:09 78° ENE 23:59:17 10° N
